EZY29BN EGGW-LFBD

Flight info

Callsign EZY29BN
Flight time 1h 23m
Altitude 33000
Route RODNI N27 ICTAM Q63 CPT N859 VAPID UN859 SOPIL DCT BALAN DCT LMG
Aircraft A320/M-SDE2E3FGHIJ1RWXYZ/LB1

Departure

Time 2026-04-27 12:23
Airport London Luton Airport (EGGW)

Arrival

Time 2026-04-27 13:46
Airport Bordeaux–Mérignac Airport (LFBD)
Time Latitude Longitude Altitude Speed Heading
2026-04-27 11:51 51.88150 -0.37429 517 ft 0 kts 161°
2026-04-27 12:15 51.88168 -0.37439 516 ft 4 kts 161°
2026-04-27 12:15 51.88188 -0.37449 516 ft 4 kts 145°
2026-04-27 12:15 51.88200 -0.37481 516 ft 2 kts 104°
2026-04-27 12:15 51.88205 -0.37508 516 ft 0 kts 104°
2026-04-27 12:18 51.88204 -0.37507 516 ft 1 kts 104°
2026-04-27 12:18 51.88205 -0.37449 516 ft 5 kts 76°
2026-04-27 12:18 51.88216 -0.37394 516 ft 7 kts 72°
2026-04-27 12:18 51.88229 -0.37330 516 ft 5 kts 72°
2026-04-27 12:19 51.88236 -0.37273 517 ft 8 kts 93°
2026-04-27 12:19 51.88189 -0.37222 516 ft 8 kts 162°
2026-04-27 12:19 51.88120 -0.37186 511 ft 12 kts 162°
2026-04-27 12:19 51.88031 -0.37141 508 ft 13 kts 162°
2026-04-27 12:20 51.87949 -0.37096 509 ft 11 kts 161°
2026-04-27 12:20 51.87875 -0.37056 510 ft 14 kts 162°
2026-04-27 12:20 51.87767 -0.36999 517 ft 15 kts 162°
2026-04-27 12:20 51.87682 -0.36954 523 ft 12 kts 161°
2026-04-27 12:21 51.87646 -0.36877 525 ft 10 kts 90°
2026-04-27 12:21 51.87669 -0.36737 523 ft 15 kts 75°
2026-04-27 12:21 51.87700 -0.36556 520 ft 18 kts 72°
2026-04-27 12:21 51.87737 -0.36344 518 ft 21 kts 74°
2026-04-27 12:22 51.87778 -0.36110 518 ft 22 kts 74°
2026-04-27 12:22 51.87722 -0.35938 516 ft 16 kts 163°
2026-04-27 12:22 51.87638 -0.35900 516 ft 8 kts 168°
2026-04-27 12:22 51.87621 -0.35928 516 ft 0 kts 252°
2026-04-27 12:23 51.87612 -0.35981 516 ft 29 kts 254°
2026-04-27 12:23 51.87476 -0.36775 524 ft 114 kts 254°
2026-04-27 12:23 51.87196 -0.38383 646 ft 169 kts 256°
2026-04-27 12:23 51.86867 -0.40272 1451 ft 180 kts 249°
2026-04-27 12:24 51.86037 -0.41800 2407 ft 190 kts 216°
2026-04-27 12:24 51.84859 -0.42978 3041 ft 204 kts 212°
2026-04-27 12:24 51.83571 -0.44192 3502 ft 225 kts 211°
2026-04-27 12:24 51.82162 -0.45583 3916 ft 249 kts 219°
2026-04-27 12:25 51.81054 -0.47811 4495 ft 262 kts 248°
2026-04-27 12:25 51.80547 -0.50666 5388 ft 266 kts 257°
2026-04-27 12:25 51.80102 -0.53589 6307 ft 270 kts 258°
2026-04-27 12:25 51.79654 -0.56552 7153 ft 273 kts 258°
2026-04-27 12:26 51.79200 -0.59548 7985 ft 275 kts 257°
2026-04-27 12:26 51.78722 -0.62556 8859 ft 278 kts 257°
2026-04-27 12:26 51.78224 -0.65588 9737 ft 280 kts 256°
2026-04-27 12:26 51.77713 -0.68643 10537 ft 284 kts 256°
2026-04-27 12:27 51.77177 -0.71850 10818 ft 307 kts 256°
2026-04-27 12:27 51.76598 -0.75279 11198 ft 323 kts 254°
2026-04-27 12:27 51.75693 -0.78645 11865 ft 332 kts 241°
2026-04-27 12:27 51.74331 -0.81685 12600 ft 338 kts 229°
2026-04-27 12:28 51.72669 -0.84402 13325 ft 342 kts 226°
2026-04-27 12:28 51.70977 -0.87126 14047 ft 346 kts 226°
2026-04-27 12:28 51.69260 -0.89883 14675 ft 350 kts 226°
2026-04-27 12:28 51.67523 -0.92669 15302 ft 353 kts 226°
2026-04-27 12:29 51.65773 -0.95477 15912 ft 357 kts 227°
2026-04-27 12:29 51.64001 -0.98318 16523 ft 361 kts 226°
2026-04-27 12:29 51.62213 -1.01181 17126 ft 365 kts 226°
2026-04-27 12:29 51.60405 -1.04074 17729 ft 368 kts 226°
2026-04-27 12:30 51.59172 -1.06042 18144 ft 371 kts 226°
2026-04-27 12:30 51.57326 -1.08982 18716 ft 375 kts 226°
2026-04-27 12:30 51.55464 -1.11932 19211 ft 379 kts 225°
2026-04-27 12:30 51.53379 -1.14569 19707 ft 385 kts 214°
2026-04-27 12:31 51.50150 -1.17019 20355 ft 393 kts 198°
2026-04-27 12:31 51.47455 -1.17871 20854 ft 398 kts 185°
2026-04-27 12:31 51.44670 -1.17762 21340 ft 403 kts 172°
2026-04-27 12:31 51.42817 -1.17108 21679 ft 406 kts 162°
2026-04-27 12:32 51.40201 -1.15382 22189 ft 409 kts 154°
2026-04-27 12:32 51.37613 -1.13460 22703 ft 412 kts 154°
2026-04-27 12:32 51.34999 -1.11530 23187 ft 415 kts 154°
2026-04-27 12:32 51.32396 -1.09618 23676 ft 418 kts 155°
2026-04-27 12:33 51.29742 -1.07675 24113 ft 421 kts 155°
2026-04-27 12:33 51.27067 -1.05724 24521 ft 424 kts 155°
2026-04-27 12:33 51.24378 -1.03766 24946 ft 426 kts 155°
2026-04-27 12:33 51.21678 -1.01797 25370 ft 427 kts 155°
2026-04-27 12:34 51.18957 -0.99814 25779 ft 429 kts 155°
2026-04-27 12:34 51.16242 -0.97836 26174 ft 431 kts 155°
2026-04-27 12:34 51.13510 -0.95853 26558 ft 433 kts 156°
2026-04-27 12:34 51.10763 -0.93861 26936 ft 434 kts 156°
2026-04-27 12:35 51.08007 -0.91869 27322 ft 436 kts 156°
2026-04-27 12:35 51.05235 -0.89868 27696 ft 438 kts 156°
2026-04-27 12:35 51.02458 -0.87865 28055 ft 440 kts 156°
2026-04-27 12:35 50.99669 -0.85851 28424 ft 441 kts 157°
2026-04-27 12:36 50.96867 -0.83830 28777 ft 443 kts 157°
2026-04-27 12:36 50.94053 -0.81803 29131 ft 445 kts 157°
2026-04-27 12:36 50.91228 -0.79777 29463 ft 446 kts 157°
2026-04-27 12:36 50.88396 -0.77746 29778 ft 448 kts 158°
2026-04-27 12:37 50.85570 -0.75626 30085 ft 451 kts 153°
2026-04-27 12:37 50.82895 -0.73010 30375 ft 454 kts 149°
2026-04-27 12:37 50.80237 -0.70292 30628 ft 456 kts 149°
2026-04-27 12:37 50.77565 -0.67569 30872 ft 457 kts 149°
2026-04-27 12:38 50.74886 -0.64845 31103 ft 458 kts 150°
2026-04-27 12:38 50.72238 -0.62156 31337 ft 459 kts 150°
2026-04-27 12:38 50.69550 -0.59429 31624 ft 459 kts 150°
2026-04-27 12:38 50.66865 -0.56710 31949 ft 458 kts 150°
2026-04-27 12:39 50.64189 -0.54007 32275 ft 457 kts 151°
2026-04-27 12:39 50.61517 -0.51316 32599 ft 455 kts 151°
2026-04-27 12:39 50.58849 -0.48632 32913 ft 454 kts 151°
2026-04-27 12:39 50.56188 -0.45952 33212 ft 454 kts 151°
2026-04-27 12:40 50.53538 -0.43276 33288 ft 447 kts 151°
2026-04-27 12:40 50.48380 -0.38076 33299 ft 437 kts 152°
2026-04-27 12:41 50.43262 -0.32960 33296 ft 435 kts 152°
2026-04-27 12:41 50.38159 -0.27870 33296 ft 434 kts 152°
2026-04-27 12:42 50.33060 -0.22801 33290 ft 434 kts 152°
2026-04-27 12:42 50.27968 -0.17751 33292 ft 433 kts 152°
2026-04-27 12:43 50.22877 -0.12710 33289 ft 433 kts 152°
2026-04-27 12:43 50.17831 -0.07722 33279 ft 432 kts 153°
2026-04-27 12:44 50.12752 -0.02703 33285 ft 431 kts 153°
2026-04-27 12:44 50.07373 0.01055 33280 ft 419 kts 171°
2026-04-27 12:45 50.01741 0.03264 33270 ft 418 kts 171°
2026-04-27 12:45 49.96103 0.05471 33267 ft 417 kts 171°
2026-04-27 12:46 49.90471 0.07682 33262 ft 417 kts 171°
2026-04-27 12:46 49.84846 0.09894 33246 ft 417 kts 171°
2026-04-27 12:47 49.79229 0.12095 33246 ft 416 kts 171°
2026-04-27 12:47 49.73644 0.14264 33235 ft 416 kts 171°
2026-04-27 12:48 49.68026 0.16441 33235 ft 416 kts 171°
2026-04-27 12:48 49.62418 0.18676 33231 ft 417 kts 170°
2026-04-27 12:49 49.56810 0.20962 33224 ft 416 kts 170°
2026-04-27 12:49 49.51273 0.23204 33235 ft 416 kts 170°
2026-04-27 12:50 49.45667 0.25463 33220 ft 416 kts 170°
2026-04-27 12:50 49.40064 0.27697 33233 ft 416 kts 171°
2026-04-27 12:51 49.34464 0.29918 33233 ft 416 kts 170°
2026-04-27 12:51 49.28868 0.32155 33232 ft 416 kts 170°
2026-04-27 12:52 49.23289 0.34506 33229 ft 416 kts 169°
2026-04-27 12:52 49.17712 0.36897 33225 ft 416 kts 169°
2026-04-27 12:53 49.09345 0.40422 33217 ft 416 kts 169°
2026-04-27 12:53 49.03809 0.42740 33214 ft 415 kts 170°
2026-04-27 12:54 48.98235 0.45062 33207 ft 415 kts 170°
2026-04-27 12:54 48.92668 0.47384 33206 ft 415 kts 170°
2026-04-27 12:55 48.87099 0.49687 33206 ft 415 kts 170°
2026-04-27 12:55 48.81531 0.51993 33202 ft 414 kts 169°
2026-04-27 12:56 48.76002 0.54271 33197 ft 414 kts 170°
2026-04-27 12:56 48.70432 0.56452 33199 ft 413 kts 171°
2026-04-27 12:57 48.64861 0.58603 33200 ft 413 kts 171°
2026-04-27 12:57 48.59299 0.60760 33200 ft 413 kts 171°
2026-04-27 12:58 48.53738 0.62916 33198 ft 412 kts 171°
2026-04-27 12:58 48.48190 0.65112 33196 ft 412 kts 170°
2026-04-27 12:59 48.42653 0.67393 33192 ft 412 kts 169°
2026-04-27 12:59 48.37125 0.69669 33192 ft 412 kts 170°
2026-04-27 13:00 48.31593 0.71909 33191 ft 411 kts 170°
2026-04-27 13:00 48.26101 0.74119 33191 ft 411 kts 170°
2026-04-27 13:01 48.20573 0.76336 33186 ft 411 kts 170°
2026-04-27 13:01 48.15042 0.78495 33184 ft 410 kts 171°
2026-04-27 13:02 48.09521 0.80649 33183 ft 410 kts 171°
2026-04-27 13:02 48.03997 0.82813 33176 ft 410 kts 171°
2026-04-27 13:03 47.98477 0.84972 33169 ft 410 kts 171°
2026-04-27 13:03 47.92953 0.87131 33173 ft 410 kts 171°
2026-04-27 13:04 47.87427 0.89280 33168 ft 411 kts 171°
2026-04-27 13:04 47.81896 0.91421 33164 ft 411 kts 171°
2026-04-27 13:05 47.76359 0.93561 33157 ft 411 kts 171°
2026-04-27 13:05 47.70860 0.95696 33157 ft 411 kts 171°
2026-04-27 13:06 47.65321 0.97842 33155 ft 412 kts 171°
2026-04-27 13:06 47.59775 0.99970 33153 ft 412 kts 171°
2026-04-27 13:07 47.54226 1.02101 33155 ft 412 kts 171°
2026-04-27 13:07 47.48671 1.04233 33155 ft 413 kts 171°
2026-04-27 13:08 47.43090 1.06173 33149 ft 408 kts 178°
2026-04-27 13:08 47.37482 1.06319 33151 ft 402 kts 186°
2026-04-27 13:09 47.31878 1.06184 33144 ft 403 kts 186°
2026-04-27 13:09 47.26261 1.06054 33147 ft 404 kts 186°
2026-04-27 13:10 47.20640 1.05918 33140 ft 404 kts 186°
2026-04-27 13:10 47.15015 1.05780 33141 ft 405 kts 186°
2026-04-27 13:11 47.09380 1.05653 33138 ft 405 kts 186°
2026-04-27 13:11 47.03735 1.05525 33145 ft 406 kts 186°
2026-04-27 13:12 46.98091 1.05348 33142 ft 406 kts 187°
2026-04-27 13:12 46.92448 1.05079 33144 ft 406 kts 187°
2026-04-27 13:13 46.86807 1.04820 33140 ft 406 kts 187°
2026-04-27 13:13 46.81160 1.04570 33143 ft 406 kts 187°
2026-04-27 13:14 46.75537 1.04336 33144 ft 407 kts 187°
2026-04-27 13:14 46.69883 1.04109 33142 ft 407 kts 187°
2026-04-27 13:15 46.64222 1.03870 33137 ft 407 kts 187°
2026-04-27 13:15 46.58558 1.03627 33134 ft 407 kts 187°
2026-04-27 13:16 46.52892 1.03378 33132 ft 407 kts 186°
2026-04-27 13:16 46.47217 1.03213 33129 ft 408 kts 185°
2026-04-27 13:17 46.41528 1.03183 33130 ft 409 kts 185°
2026-04-27 13:17 46.35842 1.03154 33130 ft 409 kts 185°
2026-04-27 13:18 46.30147 1.03094 33136 ft 409 kts 185°
2026-04-27 13:18 46.24445 1.03027 33134 ft 410 kts 185°
2026-04-27 13:19 46.18745 1.02965 33131 ft 410 kts 185°
2026-04-27 13:19 46.13079 1.02901 33139 ft 410 kts 185°
2026-04-27 13:20 46.07369 1.02837 33128 ft 410 kts 185°
2026-04-27 13:20 46.01656 1.02772 33127 ft 411 kts 184°
2026-04-27 13:21 45.95933 1.02707 33120 ft 411 kts 184°
2026-04-27 13:21 45.93087 1.02679 32898 ft 406 kts 184°
2026-04-27 13:21 45.90286 1.02655 32633 ft 400 kts 184°
2026-04-27 13:22 45.87511 1.02599 32368 ft 396 kts 188°
2026-04-27 13:22 45.84828 1.01966 32111 ft 388 kts 199°
2026-04-27 13:22 45.83148 1.01124 31942 ft 384 kts 207°
2026-04-27 13:22 45.80829 0.99272 31681 ft 379 kts 218°
2026-04-27 13:23 45.78842 0.96829 31436 ft 375 kts 229°
2026-04-27 13:23 45.76722 0.92949 31105 ft 373 kts 235°
2026-04-27 13:23 45.75206 0.89960 30832 ft 369 kts 234°
2026-04-27 13:23 45.73703 0.87005 30407 ft 366 kts 234°
2026-04-27 13:24 45.72209 0.84077 29947 ft 363 kts 234°
2026-04-27 13:24 45.71203 0.82114 29651 ft 360 kts 234°
2026-04-27 13:24 45.69728 0.79238 29235 ft 356 kts 234°
2026-04-27 13:24 45.68271 0.76397 28845 ft 352 kts 234°
2026-04-27 13:25 45.66833 0.73591 28458 ft 348 kts 234°
2026-04-27 13:25 45.65411 0.70812 28072 ft 344 kts 234°
2026-04-27 13:25 45.64007 0.68071 27681 ft 340 kts 234°
2026-04-27 13:25 45.62616 0.65358 27293 ft 336 kts 234°
2026-04-27 13:26 45.61238 0.62676 26915 ft 333 kts 234°
2026-04-27 13:26 45.59889 0.60056 26539 ft 330 kts 234°
2026-04-27 13:26 45.58535 0.57430 26153 ft 327 kts 234°
2026-04-27 13:26 45.57194 0.54826 25761 ft 324 kts 234°
2026-04-27 13:27 45.55861 0.52244 25378 ft 322 kts 234°
2026-04-27 13:27 45.54534 0.49675 24980 ft 320 kts 233°
2026-04-27 13:27 45.53219 0.47127 24578 ft 319 kts 233°
2026-04-27 13:27 45.51907 0.44586 24182 ft 318 kts 233°
2026-04-27 13:28 45.50599 0.42055 23783 ft 317 kts 233°
2026-04-27 13:28 45.49294 0.39532 23333 ft 316 kts 233°
2026-04-27 13:28 45.47996 0.37026 22933 ft 313 kts 233°
2026-04-27 13:28 45.46707 0.34542 22547 ft 310 kts 233°
2026-04-27 13:29 45.45428 0.32078 22165 ft 308 kts 233°
2026-04-27 13:29 45.44157 0.29631 21770 ft 307 kts 233°
2026-04-27 13:29 45.42888 0.27185 21372 ft 307 kts 233°
2026-04-27 13:29 45.41622 0.24750 20979 ft 305 kts 233°
2026-04-27 13:30 45.40357 0.22325 20600 ft 304 kts 233°
2026-04-27 13:30 45.39096 0.19915 20214 ft 304 kts 233°
2026-04-27 13:30 45.37834 0.17512 19830 ft 303 kts 233°
2026-04-27 13:30 45.36574 0.15112 19452 ft 303 kts 233°
2026-04-27 13:31 45.35317 0.12710 19073 ft 303 kts 233°
2026-04-27 13:31 45.34049 0.10258 18723 ft 313 kts 233°
2026-04-27 13:31 45.32759 0.07737 18351 ft 316 kts 233°
2026-04-27 13:31 45.31472 0.05215 17956 ft 315 kts 234°
2026-04-27 13:32 45.30188 0.02700 17595 ft 314 kts 234°
2026-04-27 13:32 45.28905 0.00191 17233 ft 313 kts 234°
2026-04-27 13:32 45.27624 -0.02309 16878 ft 313 kts 233°
2026-04-27 13:32 45.26362 -0.04766 16526 ft 312 kts 234°
2026-04-27 13:33 45.25082 -0.07248 16162 ft 311 kts 234°
2026-04-27 13:33 45.23804 -0.09722 15810 ft 310 kts 234°
2026-04-27 13:33 45.22530 -0.12187 15456 ft 310 kts 234°
2026-04-27 13:33 45.21258 -0.14648 15103 ft 309 kts 234°
2026-04-27 13:34 45.19987 -0.17105 14755 ft 308 kts 234°
2026-04-27 13:34 45.18721 -0.19548 14398 ft 307 kts 234°
2026-04-27 13:34 45.17455 -0.21992 14042 ft 307 kts 234°
2026-04-27 13:34 45.16075 -0.24301 13665 ft 308 kts 226°
2026-04-27 13:35 45.14580 -0.26459 13306 ft 306 kts 226°
2026-04-27 13:35 45.13090 -0.28599 12954 ft 304 kts 226°
2026-04-27 13:35 45.11603 -0.30732 12600 ft 303 kts 226°
2026-04-27 13:35 45.10130 -0.32860 12253 ft 302 kts 228°
2026-04-27 13:36 45.08898 -0.35241 11872 ft 300 kts 240°
2026-04-27 13:36 45.07935 -0.37629 11475 ft 302 kts 240°
2026-04-27 13:36 45.06884 -0.40211 11047 ft 303 kts 240°
2026-04-27 13:36 45.05830 -0.42779 10764 ft 299 kts 240°
2026-04-27 13:37 45.04808 -0.45254 10494 ft 294 kts 240°
2026-04-27 13:37 45.03779 -0.47748 10125 ft 293 kts 239°
2026-04-27 13:37 45.02754 -0.50234 9766 ft 292 kts 239°
2026-04-27 13:37 45.01734 -0.52707 9383 ft 290 kts 239°
2026-04-27 13:38 45.00722 -0.55159 9017 ft 288 kts 239°
2026-04-27 13:38 44.99718 -0.57598 8649 ft 286 kts 239°
2026-04-27 13:38 44.98725 -0.60004 8059 ft 282 kts 239°
2026-04-27 13:38 44.97740 -0.62386 7429 ft 279 kts 239°
2026-04-27 13:39 44.96769 -0.64730 6979 ft 275 kts 239°
2026-04-27 13:39 44.95807 -0.67052 6593 ft 274 kts 239°
2026-04-27 13:39 44.94841 -0.69383 6178 ft 274 kts 239°
2026-04-27 13:39 44.93897 -0.71663 5798 ft 267 kts 240°
2026-04-27 13:40 44.92961 -0.73922 5402 ft 266 kts 240°
2026-04-27 13:40 44.92016 -0.76193 4936 ft 269 kts 240°
2026-04-27 13:40 44.91073 -0.78462 4614 ft 264 kts 240°
2026-04-27 13:40 44.90163 -0.80651 4555 ft 253 kts 240°
2026-04-27 13:41 44.89302 -0.82713 4457 ft 236 kts 239°
2026-04-27 13:41 44.88291 -0.84429 4379 ft 225 kts 219°
2026-04-27 13:41 44.86981 -0.85550 4268 ft 218 kts 200°
2026-04-27 13:41 44.85542 -0.86099 4168 ft 213 kts 193°
2026-04-27 13:42 44.84100 -0.86564 4062 ft 211 kts 192°
2026-04-27 13:42 44.82692 -0.87020 4014 ft 203 kts 193°
2026-04-27 13:42 44.81301 -0.87473 3660 ft 212 kts 192°
2026-04-27 13:42 44.79884 -0.87622 3483 ft 193 kts 171°
2026-04-27 13:43 44.78689 -0.87133 3518 ft 171 kts 149°
2026-04-27 13:43 44.77760 -0.86230 3493 ft 156 kts 130°
2026-04-27 13:43 44.77103 -0.85041 3395 ft 153 kts 116°
2026-04-27 13:43 44.76734 -0.83652 3075 ft 150 kts 99°
2026-04-27 13:44 44.76654 -0.82191 2655 ft 150 kts 84°
2026-04-27 13:44 44.76871 -0.80742 2270 ft 154 kts 67°
2026-04-27 13:44 44.77370 -0.79417 1828 ft 153 kts 52°
2026-04-27 13:44 44.78091 -0.78339 1507 ft 151 kts 40°
2026-04-27 13:45 44.78845 -0.77318 1134 ft 150 kts 43°
2026-04-27 13:45 44.79539 -0.76290 909 ft 143 kts 45°
2026-04-27 13:45 44.80228 -0.75303 703 ft 140 kts 43°
2026-04-27 13:45 44.80915 -0.74324 563 ft 140 kts 44°
2026-04-27 13:46 44.81593 -0.73355 294 ft 137 kts 44°
2026-04-27 13:46 44.82248 -0.72422 166 ft 123 kts 44°
2026-04-27 13:46 44.82734 -0.71734 168 ft 74 kts 46°
2026-04-27 13:46 44.82976 -0.71380 164 ft 33 kts 44°
2026-04-27 13:47 44.83012 -0.71231 162 ft 16 kts 111°
2026-04-27 13:47 44.82977 -0.71112 162 ft 9 kts 110°
2026-04-27 13:47 44.82961 -0.71034 162 ft 7 kts 106°
2026-04-27 13:47 44.82954 -0.71005 164 ft 0 kts 107°
2026-04-27 13:48 44.82940 -0.70936 166 ft 16 kts 107°
2026-04-27 13:48 44.82938 -0.70818 166 ft 9 kts 50°
2026-04-27 13:48 44.82999 -0.70771 167 ft 11 kts 29°
2026-04-27 13:48 44.83059 -0.70691 167 ft 13 kts 47°
2026-04-27 13:49 44.83125 -0.70591 167 ft 15 kts 47°
2026-04-27 13:49 44.83202 -0.70479 167 ft 17 kts 45°
2026-04-27 13:49 44.83287 -0.70361 167 ft 16 kts 44°
2026-04-27 13:49 44.83348 -0.70294 167 ft 9 kts 49°
2026-04-27 13:50 44.83330 -0.70244 167 ft 0 kts 137°